Time,TemperatureF,DewpointF,PressureIn,WindDirection,WindDirectionDegrees,WindSpeedMPH,WindSpeedGustMPH,Humidity,HourlyPrecipIn,Conditions,Clouds,dailyrainin,SolarRadiationWatts/m^2,SoftwareType,DateUTC
2013-10-04 00:25:00,36.0,35.0,-100.00,WNW,287,2.0,36.0,98,0.03,,,0.03,0.000000,,2013-10-04 06:25:00,
2013-10-04 00:35:00,36.0,35.0,-100.00,WNW,287,2.0,36.0,98,0.03,,,0.03,0.000000,,2013-10-04 06:35:00,
2013-10-04 00:45:00,36.0,35.0,-100.00,WNW,287,2.0,36.0,98,0.03,,,0.03,0.000000,,2013-10-04 06:45:00,
2013-10-04 00:54:00,36.0,35.0,-100.00,WNW,287,2.0,36.0,98,0.03,,,0.03,0.000000,,2013-10-04 06:54:00,
2013-10-04 01:25:00,33.0,33.0,-100.00,WSW,252,1.0,25.0,99,0.03,,,0.06,0.000000,,2013-10-04 07:25:00,
2013-10-04 01:34:00,33.0,33.0,-100.00,WSW,252,1.0,25.0,99,0.03,,,0.06,0.000000,,2013-10-04 07:34:00,
2013-10-04 01:44:00,33.0,33.0,-100.00,WSW,252,1.0,25.0,99,0.03,,,0.06,0.000000,,2013-10-04 07:44:00,
2013-10-04 01:54:00,33.0,33.0,-100.00,WSW,252,1.0,25.0,99,0.03,,,0.06,0.000000,,2013-10-04 07:54:00,
2013-10-04 03:25:00,33.0,33.0,-100.00,ENE,69,0.0,5.0,99,-99.99,,,0.06,0.000000,,2013-10-04 09:25:00,
2013-10-04 03:36:00,33.0,33.0,-100.00,ENE,69,0.0,5.0,99,-99.99,,,0.06,0.000000,,2013-10-04 09:36:00,
2013-10-04 03:46:00,33.0,33.0,-100.00,ENE,69,0.0,5.0,99,-99.99,,,0.06,0.000000,,2013-10-04 09:46:00,
2013-10-04 03:56:00,33.0,33.0,-100.00,ENE,69,0.0,5.0,99,-99.99,,,0.06,0.000000,,2013-10-04 09:56:00,
2013-10-04 04:27:00,33.0,33.0,-100.00,NE,47,1.0,1.0,99,0.00,,,0.06,0.000000,,2013-10-04 10:27:00,
2013-10-04 04:37:00,33.0,33.0,-100.00,NE,47,1.0,1.0,99,0.00,,,0.06,0.000000,,2013-10-04 10:37:00,
2013-10-04 04:47:00,33.0,33.0,-100.00,NE,47,1.0,1.0,99,0.00,,,0.06,0.000000,,2013-10-04 10:47:00,
2013-10-04 04:56:00,33.0,33.0,-100.00,NE,47,1.0,1.0,99,0.00,,,0.06,0.000000,,2013-10-04 10:56:00,
2013-10-04 05:27:00,33.0,33.0,-100.00,SE,143,0.0,4.0,99,0.00,,,0.06,0.000000,,2013-10-04 11:27:00,
2013-10-04 05:37:00,33.0,33.0,-100.00,SE,143,0.0,4.0,99,0.00,,,0.06,0.000000,,2013-10-04 11:37:00,
2013-10-04 05:46:00,33.0,33.0,-100.00,SE,143,0.0,4.0,99,0.00,,,0.06,0.000000,,2013-10-04 11:46:00,
2013-10-04 05:55:00,33.0,33.0,-100.00,SE,143,0.0,4.0,99,0.00,,,0.06,0.000000,,2013-10-04 11:55:00,
2013-10-04 06:27:00,32.0,32.0,-100.00,North,1,2.0,3.0,99,0.00,,,0.06,0.000000,,2013-10-04 12:27:00,
2013-10-04 06:36:00,32.0,32.0,-100.00,North,1,2.0,3.0,99,0.00,,,0.06,0.000000,,2013-10-04 12:36:00,
2013-10-04 06:46:00,32.0,32.0,-100.00,North,1,2.0,3.0,99,0.00,,,0.06,0.000000,,2013-10-04 12:46:00,
2013-10-04 06:55:00,32.0,32.0,-100.00,North,1,2.0,3.0,99,0.00,,,0.06,0.000000,,2013-10-04 12:55:00,
2013-10-04 07:26:00,32.0,32.0,-100.00,East,101,1.0,4.0,99,0.00,,,0.06,0.000000,,2013-10-04 13:26:00,
2013-10-04 07:36:00,32.0,32.0,-100.00,East,101,1.0,4.0,99,0.00,,,0.06,0.000000,,2013-10-04 13:36:00,
2013-10-04 07:46:00,32.0,32.0,-100.00,East,101,1.0,4.0,99,0.00,,,0.06,0.000000,,2013-10-04 13:46:00,
2013-10-04 07:55:00,32.0,32.0,-100.00,East,101,1.0,4.0,99,0.00,,,0.06,0.000000,,2013-10-04 13:55:00,
2013-10-04 08:26:00,31.0,29.0,-100.00,ESE,115,4.0,4.0,94,0.00,,,0.06,0.000000,,2013-10-04 14:26:00,
2013-10-04 08:36:00,31.0,29.0,-100.00,ESE,115,4.0,4.0,94,0.00,,,0.06,0.000000,,2013-10-04 14:36:00,
2013-10-04 08:46:00,31.0,29.0,-100.00,ESE,115,4.0,4.0,94,0.00,,,0.06,0.000000,,2013-10-04 14:46:00,
2013-10-04 08:55:00,31.0,29.0,-100.00,ESE,115,4.0,4.0,94,0.00,,,0.06,0.000000,,2013-10-04 14:55:00,
2013-10-04 09:27:00,32.0,26.0,-100.00,ESE,102,3.0,7.0,79,0.00,,,0.06,16.000000,,2013-10-04 15:27:00,
2013-10-04 09:37:00,32.0,26.0,-100.00,ESE,102,3.0,7.0,79,0.00,,,0.06,16.000000,,2013-10-04 15:37:00,
2013-10-04 09:47:00,32.0,26.0,-100.00,ESE,102,3.0,7.0,79,0.00,,,0.06,16.000000,,2013-10-04 15:47:00,
2013-10-04 09:56:00,32.0,26.0,-100.00,ESE,102,3.0,7.0,79,0.00,,,0.06,16.000000,,2013-10-04 15:56:00,
2013-10-04 10:27:00,34.0,27.0,-100.00,SE,125,4.0,7.0,74,0.00,,,0.06,46.000000,,2013-10-04 16:27:00,
2013-10-04 10:37:00,34.0,27.0,-100.00,SE,125,4.0,7.0,74,0.00,,,0.06,46.000000,,2013-10-04 16:37:00,
2013-10-04 10:47:00,34.0,27.0,-100.00,SE,125,4.0,7.0,74,0.00,,,0.06,46.000000,,2013-10-04 16:47:00,
2013-10-04 10:56:00,34.0,27.0,-100.00,SE,125,4.0,7.0,74,0.00,,,0.06,46.000000,,2013-10-04 16:56:00,
2013-10-04 11:27:00,39.0,25.0,-100.00,WSW,252,1.0,7.0,57,0.10,,,0.16,76.000000,,2013-10-04 17:27:00,
2013-10-04 12:27:00,46.0,32.0,-100.00,WSW,250,2.0,8.0,58,0.05,,,0.21,521.000000,,2013-10-04 18:27:00,
2013-10-04 12:38:00,46.0,32.0,-100.00,WSW,250,2.0,8.0,58,0.05,,,0.21,521.000000,,2013-10-04 18:38:00,
2013-10-04 12:47:00,46.0,32.0,-100.00,WSW,250,2.0,8.0,58,0.05,,,0.21,521.000000,,2013-10-04 18:47:00,
2013-10-04 12:55:00,46.0,32.0,-100.00,WSW,250,2.0,8.0,58,0.05,,,0.21,521.000000,,2013-10-04 18:55:00,
2013-10-04 13:22:00,45.0,29.0,-100.00,NNE,25,5.0,6.0,53,0.06,,,0.27,772.000000,,2013-10-04 19:22:00,
2013-10-04 13:32:00,45.0,29.0,-100.00,NNE,25,5.0,6.0,53,0.06,,,0.27,772.000000,,2013-10-04 19:32:00,
2013-10-04 13:43:00,45.0,29.0,-100.00,NNE,25,5.0,6.0,53,0.06,,,0.27,772.000000,,2013-10-04 19:43:00,
2013-10-04 13:52:00,45.0,29.0,-100.00,NNE,25,5.0,6.0,53,0.06,,,0.27,772.000000,,2013-10-04 19:52:00,
2013-10-04 14:22:00,47.0,31.0,-100.00,East,84,4.0,12.0,53,0.00,,,0.27,934.000000,,2013-10-04 20:22:00,
2013-10-04 14:32:00,47.0,31.0,-100.00,East,84,4.0,12.0,53,0.00,,,0.27,934.000000,,2013-10-04 20:32:00,
2013-10-04 14:42:00,47.0,31.0,-100.00,East,84,4.0,12.0,53,0.00,,,0.27,934.000000,,2013-10-04 20:42:00,
2013-10-04 14:52:00,47.0,31.0,-100.00,East,84,4.0,12.0,53,0.00,,,0.27,934.000000,,2013-10-04 20:52:00,
2013-10-04 15:22:00,49.0,33.0,-100.00,NW,324,5.0,15.0,54,0.00,,,0.27,667.000000,,2013-10-04 21:22:00,
2013-10-04 15:33:00,49.0,33.0,-100.00,NW,324,5.0,15.0,54,0.00,,,0.27,667.000000,,2013-10-04 21:33:00,
2013-10-04 15:43:00,49.0,33.0,-100.00,NW,324,5.0,15.0,54,0.00,,,0.27,667.000000,,2013-10-04 21:43:00,
2013-10-04 15:54:00,49.0,33.0,-100.00,NW,324,5.0,15.0,54,0.00,,,0.27,667.000000,,2013-10-04 21:54:00,
2013-10-04 16:23:00,46.0,34.0,-100.00,East,84,8.0,10.0,62,0.00,,,0.27,362.000000,,2013-10-04 22:23:00,
2013-10-04 16:33:00,46.0,34.0,-100.00,East,84,8.0,10.0,62,0.00,,,0.27,362.000000,,2013-10-04 22:33:00,
2013-10-04 16:42:00,46.0,34.0,-100.00,East,84,8.0,10.0,62,0.00,,,0.27,362.000000,,2013-10-04 22:42:00,
2013-10-04 16:52:00,46.0,34.0,-100.00,East,84,8.0,10.0,62,0.00,,,0.27,362.000000,,2013-10-04 22:52:00,
2013-10-04 17:22:00,43.0,32.0,-100.00,East,100,7.0,17.0,65,0.00,,,0.27,499.000000,,2013-10-04 23:22:00,
2013-10-04 17:33:00,43.0,32.0,-100.00,East,100,7.0,17.0,65,0.00,,,0.27,499.000000,,2013-10-04 23:33:00,
2013-10-04 17:42:00,43.0,32.0,-100.00,East,100,7.0,17.0,65,0.00,,,0.27,499.000000,,2013-10-04 23:42:00,
2013-10-04 17:53:00,43.0,32.0,-100.00,East,100,7.0,17.0,65,0.00,,,0.27,499.000000,,2013-10-04 23:53:00,
2013-10-04 18:22:00,45.0,37.0,-100.00,South,191,2.0,15.0,73,0.01,,,0.28,483.000000,,2013-10-05 00:22:00,
2013-10-04 18:32:00,45.0,37.0,-100.00,South,191,2.0,15.0,73,0.01,,,0.28,483.000000,,2013-10-05 00:32:00,
2013-10-04 18:42:00,45.0,37.0,-100.00,South,191,2.0,15.0,73,0.01,,,0.28,483.000000,,2013-10-05 00:42:00,
2013-10-04 18:52:00,45.0,37.0,-100.00,South,191,2.0,15.0,73,0.01,,,0.28,483.000000,,2013-10-05 00:52:00,
2013-10-04 19:21:00,39.0,31.0,-100.00,East,101,5.0,13.0,74,0.00,,,0.28,122.000000,,2013-10-05 01:21:00,
2013-10-04 19:32:00,39.0,31.0,-100.00,East,101,5.0,13.0,74,0.00,,,0.28,122.000000,,2013-10-05 01:32:00,
2013-10-04 19:43:00,39.0,31.0,-100.00,East,101,5.0,13.0,74,0.00,,,0.28,122.000000,,2013-10-05 01:43:00,
2013-10-04 19:52:00,39.0,31.0,-100.00,East,101,5.0,13.0,74,0.00,,,0.28,122.000000,,2013-10-05 01:52:00,
2013-10-04 20:22:00,38.0,33.0,-100.00,ESE,121,2.0,8.0,82,0.00,,,0.28,43.000000,,2013-10-05 02:22:00,
2013-10-04 20:32:00,38.0,33.0,-100.00,ESE,121,2.0,8.0,82,0.00,,,0.28,43.000000,,2013-10-05 02:32:00,
2013-10-04 20:42:00,38.0,33.0,-100.00,ESE,121,2.0,8.0,82,0.00,,,0.28,43.000000,,2013-10-05 02:42:00,
2013-10-04 20:52:00,38.0,33.0,-100.00,ESE,121,2.0,8.0,82,0.00,,,0.28,43.000000,,2013-10-05 02:52:00,
2013-10-04 21:23:00,38.0,29.0,-100.00,ENE,64,4.0,7.0,70,0.00,,,0.28,0.000000,,2013-10-05 03:23:00,
2013-10-04 21:34:00,38.0,29.0,-100.00,ENE,64,4.0,7.0,70,0.00,,,0.28,0.000000,,2013-10-05 03:34:00,
2013-10-04 21:45:00,38.0,29.0,-100.00,ENE,64,4.0,7.0,70,0.00,,,0.28,0.000000,,2013-10-05 03:45:00,
2013-10-04 21:55:00,38.0,29.0,-100.00,ENE,64,4.0,7.0,70,0.00,,,0.28,0.000000,,2013-10-05 03:55:00,
2013-10-04 22:24:00,35.0,28.0,-100.00,NNE,27,2.0,7.0,75,0.00,,,0.28,0.000000,,2013-10-05 04:24:00,
2013-10-04 22:33:00,35.0,28.0,-100.00,NNE,27,2.0,7.0,75,0.00,,,0.28,0.000000,,2013-10-05 04:33:00,
2013-10-04 22:43:00,35.0,28.0,-100.00,NNE,27,2.0,7.0,75,0.00,,,0.28,0.000000,,2013-10-05 04:43:00,
2013-10-04 22:53:00,35.0,28.0,-100.00,NNE,27,2.0,7.0,75,0.00,,,0.28,0.000000,,2013-10-05 04:53:00,
2013-10-04 23:22:00,34.0,26.0,-100.00,ENE,76,3.0,6.0,73,0.00,,,0.28,0.000000,,2013-10-05 05:22:00,
2013-10-04 23:34:00,34.0,26.0,-100.00,ENE,76,3.0,6.0,73,0.00,,,0.28,0.000000,,2013-10-05 05:34:00,
2013-10-04 23:43:00,34.0,26.0,-100.00,ENE,76,3.0,6.0,73,0.00,,,0.28,0.000000,,2013-10-05 05:43:00,
2013-10-04 23:52:00,34.0,26.0,-100.00,ENE,76,3.0,6.0,73,0.00,,,0.28,0.000000,,2013-10-05 05:52:00,